Location: Newark
(39.5667°N, 8.9833°E)
Time: 03:52:56
(UTC+00:00)

S-56A Canister/Altair - Visible Passes

Search period start: 18 October 2019 00:00
Search period end: 28 October 2019 00:00
Orbit: 633 x 2499 km, 38.9° (Epoch: 17 October)

Date Brightness Start Highest point End Pass type
(mag) Time Alt. Az. Time Alt. Az. Time Alt. Az.
18 Oct 10.5 01:19:37 18° E 01:19:37 18° E 01:22:15 10° E visible
18 Oct 8.5 03:17:03 54° SW 03:18:59 73° SSE 03:29:36 10° E visible
19 Oct 8.5 02:46:13 67° SSE 02:46:13 67° SSE 02:55:55 10° E visible
19 Oct 9.1 04:43:39 14° W 04:50:59 87° S 05:03:23 10° E visible
20 Oct 9.1 02:15:22 47° ESE 02:15:22 47° ESE 02:22:19 10° E visible
20 Oct 8.9 04:12:48 25° W 04:17:56 87° S 04:29:33 10° E visible
21 Oct 9.9 01:44:31 28° E 01:44:31 28° E 01:48:46 10° E visible
21 Oct 8.6 03:41:57 42° W 03:44:56 86° S 03:55:47 10° E visible
22 Oct 10.6 01:13:40 16° E 01:13:40 16° E 01:15:19 10° E visible
22 Oct 8.2 03:11:06 71° WSW 03:12:03 85° S 03:22:05 10° E visible
22 Oct 9.2 05:08:57 10° W 05:17:02 75° SSW 05:29:24 10° ESE visible
23 Oct 8.5 02:40:15 69° E 02:40:15 69° E 02:48:28 10° E visible
23 Oct 9.0 04:37:40 17° W 04:43:59 78° SSW 04:55:39 10° ESE visible
24 Oct 9.4 02:09:23 40° E 02:09:23 40° E 02:14:55 10° E visible
24 Oct 8.7 04:06:49 30° W 04:11:00 80° S 04:21:55 10° ESE visible
25 Oct 10.2 01:38:33 23° E 01:38:33 23° E 01:41:30 10° E visible
25 Oct 8.4 03:35:59 51° W 03:38:06 82° S 03:48:14 10° ESE visible
26 Oct 10.8 01:07:44 12° E 01:07:44 12° E 01:08:09 10° E visible
26 Oct 8.2 03:05:09 83° SSW 03:05:14 84° S 03:14:38 10° E visible
26 Oct 9.3 05:02:35 10° W 05:09:53 54° SSW 05:21:02 10° SE visible
27 Oct 8.8 02:34:21 54° E 02:34:21 54° E 02:41:05 10° E visible
27 Oct 9.0 04:31:47 20° W 04:36:55 57° SSW 04:47:29 10° SE visible
